Weather History for Fullerton, CA

Change the Weather History Date:

Thursday, April 11, 2013

  Actual Average Record
Temperature  
Mean Temperature 67 °F 62 °F  
Max Temperature 78 °F 72 °F 91 °F (2008)
Min Temperature 55 °F 52 °F 48 °F (2011)
Degree Days  
Heating Degree Days 0 4  
Month to date heating degree days 0 47  
Since 1 July heating degree days 715 1139  
Cooling Degree Days 2 1  
Month to date cooling degree days 27 8  
Year to date cooling degree days 78 30  
Growing Degree Days 16 (Base 50)    
Moisture  
Dew Point 47 °F    
Average Humidity 44    
Maximum Humidity 64    
Minimum Humidity 23    
Precipitation  
Precipitation 0.00 in 0.02 in 0.22 in (2012)
Month to date precipitation T 0.29  
Year to date precipitation 2.03 8.73  
Since 1 July precipitation 5.34 12.96  
Snow  
Snow 0.00 in - - ()
Month to date snowfall 0.0  
Year to date snowfall 0.0  
Since 1 July snowfall 0.0  
Snow Depth 0.00 in    
Sea Level Pressure  
Sea Level Pressure 29.87 in    
Wind  
Wind Speed 5 mph (South)    
Max Wind Speed 14 mph    
Max Gust Speed 18 mph    
Visibility 10 miles    
Events      
T = Trace of Precipitation, MM = Missing Value Source: NWS Daily Summary

Daily Weather History Graph

Daily Weather History Graph

Search for Another Location

Airport:

Trip Planner

Search our weather history database for the weather conditions in past years. The results will help you decide how hot, cold, wet, or windy it might be!

Date:

Astronomy

Apr. 11, 2013 Rise Set
Actual Time 6:25 AM PDT 7:20 PM PDT
Civil Twilight 6:00 AM PDT 7:45 PM PDT
Nautical Twilight 5:30 AM PDT 8:16 PM PDT
Astronomical Twilight 4:59 AM PDT 8:47 PM PDT
Moon 7:04 AM PDT (4/11) 8:53 PM PDT (4/11)
Length of Visible Light 13h 45m
Length of Day
12h 54m
New Moon, 2% of the Moon is Illuminated
Apr 11
New Moon
Apr 18
First Quarter
Apr 25
Full
May 2
Last Quarter
May 9
New

Hourly Weather History & Observations

Time (PDT) Temp. Dew Point Humidity Pressure Visibility Wind Dir Wind Speed Gust Speed Precip Events Conditions
12:53 AM 62.1 °F 48.9 °F 62% 29.99 in 10.0 mi SSE 3.5 mph - N/A   Clear
1:53 AM 61.0 °F 48.9 °F 64% 29.99 in 10.0 mi Calm Calm - N/A   Clear
2:53 AM 59.0 °F 46.9 °F 64% 29.97 in 10.0 mi East 3.5 mph - N/A   Clear
3:53 AM 59.0 °F 44.1 °F 58% 29.95 in 10.0 mi Calm Calm - N/A   Clear
4:53 AM 57.0 °F 42.1 °F 57% 29.94 in 10.0 mi Calm Calm - N/A   Clear
5:53 AM 55.9 °F 39.0 °F 53% 29.93 in 10.0 mi East 3.5 mph - N/A   Clear
6:53 AM 55.9 °F 39.9 °F 55% 29.94 in 10.0 mi Calm Calm - N/A   Clear
7:53 AM 62.1 °F 39.9 °F 44% 29.94 in 10.0 mi Calm Calm - N/A   Clear
8:53 AM 66.0 °F 39.9 °F 38% 29.95 in 10.0 mi Calm Calm - N/A   Clear
10:53 AM 75.0 °F 36.0 °F 24% 29.91 in 10.0 mi SW 4.6 mph - N/A   Clear
11:53 AM 78.1 °F 37.0 °F 23% 29.88 in 10.0 mi SW 6.9 mph - N/A   Clear
12:53 PM 73.9 °F 48.9 °F 41% 29.86 in 10.0 mi SSW 12.7 mph 17.3 mph N/A   Clear
1:53 PM 73.9 °F 50.0 °F 43% 29.85 in 10.0 mi South 11.5 mph 17.3 mph N/A   Clear
2:53 PM 73.9 °F 48.9 °F 41% 29.82 in 10.0 mi SSW 10.4 mph - N/A   Clear
3:53 PM 71.1 °F 51.1 °F 49% 29.81 in 10.0 mi South 10.4 mph - N/A   Clear
4:53 PM 66.9 °F 52.0 °F 59% 29.80 in 10.0 mi SSW 9.2 mph - N/A   Clear
5:53 PM 64.9 °F 51.1 °F 61% 29.79 in 10.0 mi Variable 4.6 mph - N/A   Clear
6:53 PM 64.0 °F 51.1 °F 63% 29.79 in 10.0 mi SSW 8.1 mph - N/A   Clear
7:53 PM 62.1 °F 51.1 °F 67% 29.80 in 10.0 mi SSE 8.1 mph - N/A   Clear
8:53 PM 61.0 °F 51.1 °F 70% 29.81 in 10.0 mi South 5.8 mph - N/A   Partly Cloudy
9:41 PM 60.8 °F 51.8 °F 72% 29.83 in 10.0 mi South 4.6 mph - N/A   Mostly Cloudy
9:53 PM 61.0 °F 50.0 °F 67% 29.83 in 10.0 mi SSW 4.6 mph - N/A   Scattered Clouds
10:14 PM 60.8 °F 51.8 °F 72% 29.83 in 10.0 mi South 5.8 mph - N/A   Mostly Cloudy
10:53 PM 61.0 °F 51.1 °F 70% 29.83 in 10.0 mi SSW 4.6 mph - N/A   Overcast
11:53 PM 61.0 °F 50.0 °F 67% 29.82 in 10.0 mi SSW 4.6 mph - N/A   Overcast